#timestamp,LO_Frequency,Hit,StdDev 
1507021215.4,286046998.1,N
1507021235.2,286046998.6,N
1507021255.0,286047000.2,N
1507021255.9,286047000.2,N
1507021275.8,286047000.8,N
1507021295.6,286046997.9,N
1507021315.4,286046999.5,N
1507021335.3,286046999.8,N
1507021355.1,286046997.2,N
1507021375.8,286046993.3,Y
1507021395.7,286046995.3,P
1507021415.5,286046993.6,N
1507021435.3,286046995.0,N
1507021455.2,286046995.7,N
1507021475.9,286046997.6,N
1507021495.7,286046995.5,N
1507021515.6,286046993.5,Y
1507021535.4,286046997.2,P
1507021555.2,286046997.6,P
1507021575.1,286046998.0,P
1507021576.0,286046998.0,N
1507021595.8,286046998.9,N
1507021615.6,286046998.2,N
1507021635.5,286046995.0,Y
1507021655.3,286047000.2,P
1507021675.1,286046999.2,N
1507021695.9,286046994.9,P
1507021715.7,286047001.2,N
1507021735.5,286046999.9,N
1507021755.4,286047002.2,N
1507021775.2,286047004.1,N
1507021795.0,286047005.6,N
1507021795.9,286047005.6,N
1507021815.7,286047002.1,N
1507021835.6,286047005.5,N
1507021855.4,286047002.5,N
1507021875.2,286047002.8,N
1507021895.1,286046999.9,N
1507021896.0,286046999.9,N
1507021915.8,286046999.9,N
1507021935.6,286047002.6,N
1507021955.5,286046996.7,N
1507021975.3,286046998.8,N
1507021995.1,286046999.9,N
1507022015.9,286047000.3,N
1507022035.7,286047002.8,N
1507022055.5,286047002.5,N
1507022075.3,286047001.7,N
1507022095.2,286046999.9,N
1507022115.0,286047001.8,N
1507022115.9,286047001.8,N
1507022135.7,286047001.6,N
1507022155.6,286046995.6,N
1507022175.4,286046993.3,N
1507022195.2,286046995.3,N
1507022215.1,286046999.2,N
1507022216.0,286046999.2,N
1507022235.8,286046994.2,N
1507022255.6,286046993.8,N
1507022275.5,286046992.0,N
1507022295.3,286046997.7,N
1507022315.1,286046995.0,N
1507022335.9,286046998.8,N
1507022355.7,286047004.0,N
1507022375.5,286047001.9,N
1507022395.4,286047000.8,N
1507022415.2,286046998.4,N
1507022435.0,286046998.3,N
1507022435.9,286046998.3,N
1507022455.7,286046998.8,N
1507022475.6,286047001.1,N
1507022495.4,286047004.2,N
1507022515.2,286047001.3,N
1507022535.1,286047001.8,N
1507022536.0,286047001.8,N
1507022555.8,286047002.6,N
1507022575.6,286047004.9,N
1507022595.5,286047003.5,N
1507022615.3,286047003.3,N
1507022635.1,286047005.3,N
1507022655.9,286047006.0,N
1507022675.7,286047005.9,N
1507022695.5,286047003.5,N
1507022715.4,286047006.1,N
1507022735.2,286047008.7,N
1507022755.0,286047009.0,N
1507022755.9,286047009.0,N
1507022775.8,286047013.3,Y
1507022795.6,286047009.5,P
1507022815.4,286047008.1,N
1507022835.3,286047008.2,N
1507022855.1,286047010.5,Y
1507022856.0,286047010.5,P
1507022875.8,286047004.5,N
1507022895.7,286047005.9,N
1507022915.5,286047005.3,N
1507022935.3,286047007.0,Y
1507022955.2,286046997.0,P
1507022975.9,286046995.4,N
1507022995.7,286046999.1,N
1507023015.6,286046999.0,N
1507023035.4,286046997.0,N
1507023055.2,286047000.7,N
1507023075.0,286046999.6,N
1507023075.9,286046999.6,N
1507023095.8,286047000.5,N
1507023115.6,286046996.6,N
1507023135.4,286046993.8,N
1507023155.3,286046997.1,N
1507023175.1,286046999.0,N
1507023195.8,286046998.3,N
1507023215.7,286046998.8,N
1507023235.5,286046997.5,N
1507023255.3,286046994.3,N
1507023275.2,286046993.8,N
1507023295.9,286046997.2,N
1507023315.7,286046997.5,N
1507023335.5,286046993.7,N
1507023355.4,286046998.0,N
1507023375.2,286046993.3,N
1507023395.0,286046995.7,N
1507023396.0,286046995.7,N
1507023415.8,286046993.7,N
1507023435.6,286046993.0,N
1507023455.4,286046995.3,N
1507023475.3,286046994.8,N
1507023495.1,286046991.9,N
1507023515.8,286046992.0,Y
1507023535.7,286047000.1,P
1507023555.5,286047003.1,N
1507023575.3,286047002.1,N
1507023595.2,286047002.6,N
1507023615.9,286047004.0,N
1507023635.7,286047001.8,N
1507023655.6,286047001.5,N
1507023675.4,286047006.5,Y
1507023695.2,286047008.8,P
1507023715.1,286047002.2,N
1507023716.0,286047002.2,N
1507023735.8,286046997.6,N
1507023755.6,286046997.2,N
1507023775.5,286046993.8,N
1507023795.3,286046993.8,N
1507023815.1,286046995.7,N
1507023835.9,286046998.8,N
1507023855.7,286046995.9,N
1507023875.5,286046995.7,N
1507023895.4,286046998.0,N
1507023915.2,286046998.0,N
1507023935.0,286046995.8,N
1507023935.9,286046995.8,N
1507023955.7,286046995.9,N
1507023975.6,286046992.1,N
1507023995.4,286046994.7,N
1507024015.2,286046991.1,N
1507024035.1,286046990.0,N
1507024036.0,286046990.0,N
1507024055.8,286046992.9,N
1507024075.6,286046988.7,N
1507024095.5,286046992.3,N
1507024115.3,286046996.3,N
1507024135.1,286046988.7,N
1507024155.9,286046991.5,N
1507024175.7,286046991.4,N
1507024195.5,286046990.4,N
1507024215.4,286046987.1,N
1507024235.2,286046990.1,N
1507024255.0,286046993.4,N
1507024255.9,286046993.4,N
1507024275.8,286046995.4,N
1507024295.6,286046995.1,N
1507024315.4,286046995.0,N
1507024335.2,286046994.7,N
1507024355.1,286046997.4,N
1507024356.0,286046997.4,N
1507024375.8,286046999.4,N
1507024395.6,286046997.8,N
1507024415.5,286046999.3,N
1507024435.3,286046993.8,N
1507024455.1,286046993.4,N
1507024475.9,286046996.0,N
1507024495.7,286046995.2,N
1507024515.5,286046995.8,N
1507024535.4,286046992.0,N
1507024555.2,286046992.6,N
1507024575.0,286046996.4,N
1507024575.9,286046996.4,N
1507024595.8,286046993.2,N
1507024615.6,286046991.4,N
1507024635.4,286046989.2,Y
1507024655.3,286046997.7,P
1507024675.1,286047001.1,N
1507024676.0,286047001.1,N
1507024695.8,286046997.2,N
1507024715.7,286046998.6,N
1507024735.5,286047002.3,N
1507024755.3,286047001.9,N
1507024775.1,286047002.8,N
1507024795.9,286047000.8,N
